Location: Peterborough
(44.3091°N, 78.3197°W)
Time: 06:40:37
(UTC-05:00)

Transit 4A - Pass Details

Date: 28 September 2023
Orbit: 864 x 979 km, 66.8° (Epoch: 07 December)

Event Time Altitude Azimuth Distance (km) Brightness Sun altitude
Rises 20:15:40 0° 331° (NNW) 3,682 11.6 -14.3°
Reaches altitude 10° 20:18:32 10° 341° (NNW) 2,723 10.8 -14.8°
Maximum altitude 20:24:17 34° 45° (NE) 1,524 8.8 -15.8°
Enters shadow 20:27:05 24° 89° (E) 1,869 8.9 -16.3°
